Location: Pinawa
(50.1500°N, 95.8830°W)
Time: 10:54:31
(UTC-05:00)

Amateur Radio Satellites - All Passes

Search period start: 29 April 2016 10:24
Search period end: 30 April 2016 10:24
Location: Pinawa, 50.1500°N, 95.8830°W

Satellite Date Start Highest point End Downlink Frequencies (MHz)
Time Altitude Azimuth
QB50P2 29 Apr 10:27:04 10:29:41 16° 58° (ENE) 10:32:19 145.880/145.840
POLYITAN 1 29 Apr 10:29:07 10:31:47 16° 58° (ENE) 10:34:27 437.675
DUCHIFAT 1 29 Apr 10:32:32 10:35:05 16° 58° (ENE) 10:37:40 145.980
POPSAT HIP 1 29 Apr 10:32:43 10:35:29 17° 59° (ENE) 10:38:16 437.405
SEEDS 29 Apr 10:33:10 10:37:11 46° 290° (WNW) 10:41:11 437.485
Cosmos 2491 29 Apr 10:34:24 10:41:01 23° 307° (NW) 10:47:42 435.465 / 435.565
UNISAT 6 29 Apr 10:35:02 10:39:40 68° 72° (ENE) 10:44:16 437.425
QB50P1 29 Apr 10:36:09 10:39:05 18° 60° (ENE) 10:42:02 145.935-145.965
COMPASS 1 29 Apr 10:44:02 10:48:03 47° 290° (WNW) 10:52:02 437.405
TIGRISAT 29 Apr 10:53:58 10:58:39 86° 254° (WSW) 11:03:17 435.000
HO-68 29 Apr 10:57:08 11:03:57 49° 298° (WNW) 11:10:45 435.675
CANX-2 29 Apr 11:01:22 11:04:22 19° 299° (WNW) 11:07:22 2200.000
Oscar 11 29 Apr 11:03:27 11:07:47 86° 285° (WNW) 11:12:05 145.826/435.025
CUBEBUG 2 29 Apr 11:08:30 11:12:46 46° 291° (WNW) 11:16:52 437.445
JAS-2 29 Apr 11:09:02 11:11:48 13° 41° (NE) 11:14:40 435.910
FUNcube-1 29 Apr 11:09:16 11:13:34 89° 273° (W) 11:17:45 145.935
UWE-3 29 Apr 11:09:30 11:13:49 60° 288° (WNW) 11:17:58 435.000/436.395/437.385
NANOSAT C BR1 29 Apr 11:12:06 11:16:00 35° 67° (ENE) 11:19:54 145.865
ANTELSAT 29 Apr 11:17:36 11:22:09 50° 260° (W) 11:26:39 437.575/2403.000
AAUSAT CUBESAT 2 29 Apr 11:19:17 11:22:48 27° 295° (WNW) 11:26:18 437.432
ISS 29 Apr 11:22:35 11:25:51 84° 159° (SSE) 11:29:08 145.825
DELFI C3 29 Apr 11:30:07 11:34:06 84° 285° (WNW) 11:38:05 145.870
BUGSAT 1 29 Apr 11:30:07 11:33:43 27° 64° (ENE) 11:37:20 437.445
CINEMA 3 29 Apr 11:32:15 11:34:55 15° 305° (NW) 11:37:30 145.822/145.860
GONETS M04 29 Apr 11:33:59 11:42:06 38° 65° (ENE) 11:50:05
CUTE 1.7 + AOD 2 29 Apr 11:36:20 11:37:39 11° 305° (NW) 11:38:58 437.475
CUBEBUG 1 29 Apr 11:41:44 11:42:21 10° 85° (E) 11:42:59 437.445
ZACube-1 29 Apr 11:49:39 11:53:34 35° 293° (WNW) 11:57:23 437.345
HUMSAT D 29 Apr 11:51:32 11:55:39 75° 103° (ESE) 11:59:43 437.325/437.525
SO-50 29 Apr 11:54:59 11:58:38 20° 339° (NNW) 12:02:16 436.795
VELOX 1 29 Apr 11:56:37 11:59:14 15° 89° (E) 12:01:48 145.980
AIST 1 29 Apr 11:57:38 12:01:44 36° 72° (ENE) 12:05:49
QB50P2 29 Apr 12:00:42 12:04:59 74° 257° (WSW) 12:09:19 145.880/145.840
POLYITAN 1 29 Apr 12:02:48 12:07:05 73° 257° (WSW) 12:11:25 437.675
DUCHIFAT 1 29 Apr 12:06:01 12:10:17 75° 257° (WSW) 12:14:34 145.980
POPSAT HIP 1 29 Apr 12:06:32 12:10:49 69° 258° (WSW) 12:15:07 437.405
DX 1 29 Apr 12:07:16 12:10:07 17° 90° (E) 12:12:57 434.975-435.025
QB50P1 29 Apr 12:10:13 12:14:27 62° 258° (WSW) 12:18:45 145.935-145.965
UNISAT 6 29 Apr 12:13:47 12:16:51 17° 271° (W) 12:19:52 437.425
50 SAT 29 Apr 12:15:02 12:17:56 22° 94° (E) 12:20:49 437.505
UKube-1 29 Apr 12:21:00 12:24:05 19° 91° (E) 12:27:08 .
Gurwin Techsat 1B 29 Apr 12:24:49 12:26:07 11° 47° (NE) 12:27:24 435.225
Cosmos 2499 29 Apr 12:26:06 12:33:06 40° 69° (ENE) 12:40:33 435.465 / 435.565
AISAT 29 Apr 12:27:11 12:31:08 30° 95° (E) 12:35:03 437.250
ESTCUBE 1 29 Apr 12:29:21 12:33:38 40° 98° (E) 12:37:53 437.505/2401.250
TIGRISAT 29 Apr 12:34:12 12:36:01 12° 274° (W) 12:37:51 435.000
Oscar 11 29 Apr 12:41:20 12:43:15 13° 304° (NW) 12:45:10 145.826/435.025
HO-68 29 Apr 12:46:33 12:50:05 15° 321° (NW) 12:53:37 435.675
FUNcube-1 29 Apr 12:47:13 12:49:09 13° 304° (NW) 12:51:03 145.935
NANOSAT C BR1 29 Apr 12:48:05 12:51:47 28° 265° (W) 12:55:31 145.865
JAS-2 29 Apr 12:49:25 12:55:09 49° 64° (ENE) 13:01:39 435.910
Oscar 19 29 Apr 12:57:50 13:02:31 36° 64° (ENE) 13:07:14 437.125/150
SPROUT 29 Apr 12:57:59 13:01:29 24° 93° (E) 13:04:56 437.525
ISS 29 Apr 12:59:10 13:02:26 65° 3° (N) 13:05:41 145.825
BUGSAT 1 29 Apr 13:05:03 13:08:58 37° 263° (W) 13:12:57 437.445
DELFI C3 29 Apr 13:07:09 13:08:20 11° 304° (WNW) 13:09:31 145.870
CUBEBUG 1 29 Apr 13:14:56 13:19:25 80° 103° (ESE) 13:23:52 437.445
HUMSAT D 29 Apr 13:28:31 13:30:46 14° 302° (WNW) 13:33:00 437.325/437.525
GONETS M04 29 Apr 13:30:50 13:39:25 61° 268° (W) 13:47:55
VELOX 1 29 Apr 13:31:45 13:36:13 73° 287° (WNW) 13:40:40 145.980
AO-7 29 Apr 13:34:56 13:40:40 21° 39° (NE) 13:46:25 29.400- 29.500
AIST 1 29 Apr 13:35:30 13:39:13 27° 271° (W) 13:42:55
PHONESAT 2.4 29 Apr 13:37:08 13:38:35 12° 168° (SSE) 13:40:00 2401.200-2431.200
SO-50 29 Apr 13:38:08 13:40:54 15° 3° (N) 13:43:38 436.795
DX 1 29 Apr 13:42:23 13:46:45 64° 289° (WNW) 13:51:06 434.975-435.025
TISAT 1 29 Apr 13:46:44 13:50:11 23° 93° (E) 13:53:36 437.305
50 SAT 29 Apr 13:48:31 13:51:50 33° 292° (WNW) 13:55:09 437.505
AO-85 29 Apr 13:53:12 13:57:43 27° 115° (ESE) 14:02:12 145.980
UKube-1 29 Apr 13:56:12 14:00:29 56° 290° (WNW) 14:04:44 .
Gurwin Techsat 1B 29 Apr 13:59:47 14:04:55 52° 68° (ENE) 14:10:05 435.225
AISAT 29 Apr 14:03:33 14:07:41 36° 294° (WNW) 14:11:47 437.250
ESTCUBE 1 29 Apr 14:06:27 14:10:19 28° 296° (WNW) 14:14:11 437.505/2401.250
ITAMSAT 1 29 Apr 14:08:05 14:12:33 30° 61° (ENE) 14:17:01 435.822/435.867
Cosmos 2499 29 Apr 14:19:13 14:26:24 51° 269° (W) 14:34:08 435.465 / 435.565
SPROUT 29 Apr 14:33:32 14:37:37 42° 291° (WNW) 14:41:40 437.525
JAS-2 29 Apr 14:35:02 14:40:27 36° 268° (W) 14:46:33 435.910
ISS 29 Apr 14:35:41 14:38:57 64° 202° (SSW) 14:42:11 145.825
Oscar 19 29 Apr 14:37:00 14:41:49 39° 263° (W) 14:46:41 437.125/150
CUBEBUG 1 29 Apr 14:52:28 14:55:08 16° 303° (WNW) 14:57:49 437.445
ITUPSAT 1 29 Apr 14:59:09 15:03:09 26° 94° (E) 15:07:08 437.325
VELOX 1 29 Apr 15:10:14 15:11:55 12° 306° (NW) 15:13:36 145.980
SWISSCUBE 29 Apr 15:10:27 15:14:51 36° 97° (E) 15:19:14 437.505
PHONESAT 2.4 29 Apr 15:12:54 15:14:42 14° 185° (S) 15:16:30 2401.200-2431.200
SO-50 29 Apr 15:19:03 15:23:02 25° 27° (NNE) 15:26:56 436.795
DX 1 29 Apr 15:21:19 15:22:06 10° 308° (NW) 15:22:53 434.975-435.025
TISAT 1 29 Apr 15:22:00 15:26:01 41° 292° (WNW) 15:29:59 437.305
AO-7 29 Apr 15:23:52 15:32:00 64° 63° (ENE) 15:40:11 29.400- 29.500
O/OREOS (USA 219) 29 Apr 15:29:22 15:32:30 18° 101° (E) 15:35:39 437.305
GONETS M04 29 Apr 15:30:17 15:34:17 14° 292° (WNW) 15:38:17
AO-85 29 Apr 15:32:27 15:37:55 69° 313° (NW) 15:43:15 145.980
Gurwin Techsat 1B 29 Apr 15:40:40 15:45:09 27° 267° (W) 15:49:40 435.225
BEESAT 29 Apr 15:43:57 15:48:43 66° 103° (ESE) 15:53:27 436.000
ITAMSAT 1 29 Apr 15:46:51 15:51:51 47° 261° (W) 15:56:52 435.822/435.867
CUSAT 1 29 Apr 15:55:50 15:58:48 27° 88° (E) 16:02:29 437.405
HORYU 2 29 Apr 16:06:52 16:10:39 27° 63° (ENE) 16:14:26 437.375
DANDE 29 Apr 16:06:54 16:07:32 10° 82° (E) 16:08:11 436.750
ISS 29 Apr 16:12:54 16:14:57 16° 221° (SW) 16:16:59 145.825
Cosmos 2499 29 Apr 16:17:38 16:17:47 10° 291° (WNW) 16:17:56 435.465 / 435.565
PCSat 29 Apr 16:20:51 16:24:36 19° 107° (ESE) 16:28:23 145.827
NOAA 18 29 Apr 16:31:34 16:34:29 15° 49° (NE) 16:37:23 137.9125
ITUPSAT 1 29 Apr 16:36:38 16:41:12 46° 292° (WNW) 16:45:44 437.325
Cosmos 2491 29 Apr 16:42:19 16:48:23 20° 50° (NE) 16:54:25 435.465 / 435.565
SWISSCUBE 29 Apr 16:48:22 16:52:38 34° 296° (WNW) 16:56:53 437.505
MOZHAYETS 4 29 Apr 16:48:40 16:52:41 30° 95° (E) 16:56:41
CUTE-I 29 Apr 16:50:41 16:53:25 14° 51° (NE) 16:56:10 437.470
SO-50 29 Apr 16:59:21 17:04:11 88° 56° (ENE) 17:08:50 436.795
O/OREOS (USA 219) 29 Apr 17:06:52 17:11:26 65° 300° (WNW) 17:16:02 437.305
KKS-1 29 Apr 17:12:39 17:17:09 72° 103° (ESE) 17:21:37 437.445
AO-85 29 Apr 17:14:59 17:19:20 24° 335° (NNW) 17:23:32 145.980
AO-7 29 Apr 17:17:49 17:25:17 36° 264° (W) 17:32:48 29.400- 29.500
BEESAT 29 Apr 17:22:37 17:26:05 20° 302° (WNW) 17:29:33 436.000
M-CUBED/EXP-1 PRIME 29 Apr 17:27:20 17:30:29 18° 51° (NE) 17:33:35 437.505
Cubesat XI-IV 29 Apr 17:31:41 17:36:07 27° 60° (ENE) 17:40:33 437.490
CUSAT 1 29 Apr 17:37:54 17:40:57 26° 298° (WNW) 17:44:44 437.405
STARS 29 Apr 17:39:30 17:43:56 73° 103° (ESE) 17:48:20 437.465
NOAA 15 29 Apr 17:42:30 17:47:29 45° 66° (ENE) 17:52:31 137.62
HORYU 2 29 Apr 17:42:50 17:47:04 41° 262° (W) 17:51:20 437.375
DANDE 29 Apr 17:46:56 17:49:41 39° 290° (WNW) 17:53:04 436.750
AUBIESAT-1 29 Apr 17:48:48 17:52:21 22° 54° (NE) 17:55:50 437.475
GOMX 1 29 Apr 17:58:41 18:02:32 22° 58° (ENE) 18:06:32 467.674
HO-68 29 Apr 17:59:34 18:03:15 15° 40° (NE) 18:06:57 435.675
PCSat 29 Apr 18:01:56 18:07:22 82° 307° (NW) 18:12:52 145.827
LilacSat-2 29 Apr 18:03:07 18:06:35 31° 67° (ENE) 18:10:04 437.200
BRITE-PL 29 Apr 18:05:03 18:09:32 39° 66° (ENE) 18:14:23 437.365/2234.400
NOAA 18 29 Apr 18:08:44 18:14:12 68° 70° (ENE) 18:19:41 137.9125
DOVE 4 29 Apr 18:14:02 18:17:21 17° 55° (NE) 18:20:43 437.250
CUBESAT XI-V 29 Apr 18:23:26 18:27:41 33° 95° (E) 18:31:55 437.345
MOZHAYETS 4 29 Apr 18:25:43 18:29:55 37° 293° (WNW) 18:34:07
CUTE-I 29 Apr 18:27:17 18:32:35 70° 71° (ENE) 18:37:54 437.470
Cosmos 2491 29 Apr 18:38:22 18:47:13 69° 76° (ENE) 18:55:58 435.465 / 435.565
SO-50 29 Apr 18:41:10 18:43:59 16° 250° (WSW) 18:46:46 436.795
O/OREOS (USA 219) 29 Apr 18:49:23 18:51:48 14° 322° (NW) 18:54:12 437.305
CANX-2 29 Apr 18:49:59 18:50:45 10° 54° (NE) 18:51:31 2200.000
KKS-1 29 Apr 18:50:16 18:53:14 18° 302° (WNW) 18:56:10 437.445
YUBILEINY 29 Apr 18:58:14 19:05:44 34° 82° (E) 19:13:13 435.215
AO-85 29 Apr 18:58:26 19:01:37 16° 359° (N) 19:04:41 145.980
M-CUBED/EXP-1 PRIME 29 Apr 18:59:42 19:04:27 87° 247° (WSW) 19:09:10 437.505
Cubesat XI-IV 29 Apr 19:10:40 19:15:54 56° 259° (W) 19:21:10 437.490
STARS 29 Apr 19:16:57 19:19:48 17° 302° (WNW) 19:22:38 437.465
CUTE 1.7 + AOD 2 29 Apr 19:21:06 19:23:56 18° 60° (ENE) 19:26:47 437.475
AUBIESAT-1 29 Apr 19:21:48 19:26:27 65° 252° (WSW) 19:31:02 437.475
NOAA 15 29 Apr 19:22:47 19:27:26 31° 265° (W) 19:32:08 137.62
CINEMA 3 29 Apr 19:23:19 19:27:15 24° 61° (ENE) 19:31:12 145.822/145.860
GOMX 1 29 Apr 19:35:05 19:40:03 70° 259° (WSW) 19:45:24 467.674
LilacSat-2 29 Apr 19:37:37 19:40:56 26° 266° (W) 19:44:15 437.200
BEESAT 3 29 Apr 19:39:11 19:42:04 20° 115° (ESE) 19:44:58 437.485
BEESAT 2 29 Apr 19:40:41 19:42:31 13° 111° (ESE) 19:44:22 435.950
HO-68 29 Apr 19:42:35 19:49:26 51° 62° (ENE) 19:56:19 435.675
BRITE-PL 29 Apr 19:43:49 19:48:07 32° 267° (W) 19:52:46 437.365/2234.400
PCSat 29 Apr 19:47:13 19:51:36 24° 329° (NNW) 19:55:59 145.827
DOVE 4 29 Apr 19:49:11 19:54:17 88° 72° (ENE) 19:59:37 437.250
STRAND 1 29 Apr 19:50:50 19:55:01 25° 92° (E) 19:59:11 437.568
NOAA 18 29 Apr 19:51:09 19:55:22 22° 269° (W) 19:59:35 137.9125
SEEDS 29 Apr 19:54:09 19:57:39 26° 65° (ENE) 20:01:08 437.485
CUBESAT XI-V 29 Apr 20:00:50 20:05:05 35° 294° (WNW) 20:09:20 437.345
COMPASS 1 29 Apr 20:04:19 20:07:42 25° 64° (ENE) 20:11:05 437.405
CUTE-I 29 Apr 20:09:18 20:13:10 20° 270° (W) 20:17:03 437.470
CANX-2 29 Apr 20:21:38 20:25:50 70° 74° (ENE) 20:30:03 2200.000
Oscar 11 29 Apr 20:28:04 20:31:00 18° 60° (ENE) 20:33:55 145.826/435.025
CUBEBUG 2 29 Apr 20:34:13 20:38:30 35° 67° (ENE) 20:42:45 437.445
FUNcube-1 29 Apr 20:34:20 20:37:24 18° 60° (ENE) 20:40:27 145.935
UWE-3 29 Apr 20:34:51 20:38:43 27° 64° (ENE) 20:42:31 435.000/436.395/437.385
Cosmos 2491 29 Apr 20:35:55 20:43:25 33° 279° (W) 20:50:54 435.465 / 435.565
M-CUBED/EXP-1 PRIME 29 Apr 20:37:17 20:39:36 13° 267° (W) 20:41:55 437.505
AAUSAT CUBESAT 2 29 Apr 20:38:06 20:41:59 42° 69° (ENE) 20:45:53 437.432
AO-85 29 Apr 20:39:51 20:43:55 23° 24° (NNE) 20:47:44 145.980
DELFI C3 29 Apr 20:47:59 20:49:56 13° 58° (ENE) 20:51:52 145.870
Cosmos 2504 29 Apr 20:52:53 20:59:32 40° 87° (E) 21:06:05 435.465 / 435.565
YUBILEINY 29 Apr 20:53:18 21:01:58 67° 285° (WNW) 21:10:41 435.215
CUTE 1.7 + AOD 2 29 Apr 20:55:12 20:59:23 61° 259° (W) 21:03:35 437.475
CINEMA 3 29 Apr 20:59:03 21:04:00 60° 260° (W) 21:09:01 145.822/145.860
ZACube-1 29 Apr 21:13:12 21:17:26 40° 68° (ENE) 21:21:37 437.345
HUMSAT D 29 Apr 21:14:02 21:16:05 13° 57° (ENE) 21:18:06 437.325/437.525
BEESAT 3 29 Apr 21:15:32 21:19:25 58° 314° (NW) 21:23:22 437.485
BEESAT 2 29 Apr 21:15:47 21:19:46 87° 305° (NW) 21:23:49 435.950
GOMX 1 29 Apr 21:17:54 21:19:14 11° 279° (W) 21:20:35 467.674
PRISM 29 Apr 21:23:07 21:27:01 37° 98° (E) 21:30:55 437.425
SEEDS 29 Apr 21:29:21 21:33:14 37° 263° (W) 21:37:08 437.485
STRAND 1 29 Apr 21:29:32 21:34:30 54° 292° (WNW) 21:39:28 437.568
DOVE 4 29 Apr 21:29:45 21:32:44 15° 275° (W) 21:35:47 437.250
HO-68 29 Apr 21:30:40 21:37:20 41° 263° (W) 21:44:02 435.675
PCSat 29 Apr 21:34:24 21:37:02 13° 355° (N) 21:39:39 145.827
COMPASS 1 29 Apr 21:39:14 21:43:07 39° 263° (W) 21:47:01 437.405
CANX-2 29 Apr 21:59:56 22:02:12 14° 272° (W) 22:04:27 2200.000
ESTCUBE 1 29 Apr 22:00:46 22:01:36 10° 52° (NE) 22:02:27 437.505/2401.250
Oscar 11 29 Apr 22:02:25 22:06:43 63° 259° (WSW) 22:11:01 145.826/435.025
FUNcube-1 29 Apr 22:08:43 22:13:13 67° 258° (WSW) 22:17:41 145.935
UWE-3 29 Apr 22:10:31 22:14:59 45° 262° (W) 22:19:24 435.000/436.395/437.385
CUBEBUG 2 29 Apr 22:10:48 22:15:07 34° 264° (W) 22:19:25 437.445
AAUSAT CUBESAT 2 29 Apr 22:14:27 22:17:40 22° 268° (W) 22:20:54 437.432
AIST 2 29 Apr 22:18:57 22:22:46 38° 121° (ESE) 22:26:37 435.215
AO-85 29 Apr 22:20:16 22:25:18 73° 48° (NE) 22:29:49 145.980
DELFI C3 29 Apr 22:20:20 22:24:17 77° 257° (WSW) 22:28:15 145.870
RS-15 29 Apr 22:31:03 22:41:28 45° 111° (ESE) 22:52:24 29.354- 29.394
CUBEBUG 1 29 Apr 22:40:54 22:43:44 17° 58° (ENE) 22:46:33 437.445
TIGRISAT 29 Apr 22:42:29 22:44:49 14° 87° (E) 22:47:06 435.000
Cosmos 2504 29 Apr 22:45:54 22:52:49 46° 289° (WNW) 22:59:43 435.465 / 435.565
HUMSAT D 29 Apr 22:46:52 22:51:07 87° 260° (W) 22:55:20 437.325/437.525
ZACube-1 29 Apr 22:49:57 22:53:50 27° 266° (W) 22:57:41 437.345
YUBILEINY 29 Apr 22:55:03 23:00:48 19° 310° (NW) 23:06:35 435.215
BEESAT 2 29 Apr 22:55:13 22:58:12 20° 331° (NNW) 23:01:12 435.950
BEESAT 3 29 Apr 22:55:27 22:57:57 16° 336° (NNW) 23:00:27 437.485
VELOX 1 29 Apr 22:58:00 23:01:34 24° 62° (ENE) 23:05:10 145.980
50 SAT 29 Apr 22:58:21 23:01:12 22° 64° (ENE) 23:04:04 437.505
PRISM 29 Apr 22:58:44 23:02:12 26° 296° (WNW) 23:05:41 437.425
ANTELSAT 29 Apr 23:05:09 23:08:44 24° 93° (E) 23:12:14 437.575/2403.000
DX 1 29 Apr 23:06:52 23:10:30 27° 63° (ENE) 23:14:11 434.975-435.025
STRAND 1 29 Apr 23:11:27 23:12:37 11° 312° (NW) 23:13:47 437.568
PCSat 29 Apr 23:19:04 23:22:42 18° 21° (NNE) 23:26:20 145.827
UKube-1 29 Apr 23:19:39 23:23:23 29° 64° (ENE) 23:27:08 .
AISAT 29 Apr 23:28:44 23:32:59 46° 68° (ENE) 23:37:16 437.250
ESTCUBE 1 29 Apr 23:33:07 23:37:32 63° 72° (ENE) 23:42:00 437.505/2401.250
QB50P2 29 Apr 23:42:34 23:44:43 14° 88° (E) 23:46:51 145.880/145.840
POLYITAN 1 29 Apr 23:44:39 23:46:50 14° 88° (E) 23:49:00 437.675
DUCHIFAT 1 29 Apr 23:47:12 23:49:13 13° 88° (E) 23:51:11 145.980
POPSAT HIP 1 29 Apr 23:48:04 23:50:26 14° 88° (E) 23:52:47 437.405
QB50P1 29 Apr 23:51:25 23:54:04 16° 89° (E) 23:56:41 145.935-145.965
O/OREOS (USA 219) 29 Apr 23:54:43 23:57:27 15° 40° (NE) 00:00:10 437.305
SPROUT 29 Apr 23:55:47 23:59:39 33° 66° (ENE) 00:03:32 437.525
AIST 2 29 Apr 23:57:27 00:01:17 36° 321° (NW) 00:05:10 435.215
UNISAT 6 29 Apr 23:58:53 00:03:19 78° 103° (ESE) 00:07:37 437.425
AO-85 30 Apr 00:01:45 00:05:10 20° 249° (WSW) 00:08:23 145.980
CUBEBUG 1 30 Apr 00:15:09 00:19:30 72° 256° (WSW) 00:23:57 437.445
TIGRISAT 30 Apr 00:17:41 00:22:05 74° 287° (WNW) 00:26:22 435.000
HUMSAT D 30 Apr 00:26:32 00:27:24 11° 274° (W) 00:28:16 437.325/437.525
NANOSAT C BR1 30 Apr 00:27:21 00:31:13 33° 96° (E) 00:35:02 145.865
50 SAT 30 Apr 00:31:29 00:34:52 35° 262° (W) 00:38:16 437.505
AIST 1 30 Apr 00:33:07 00:35:52 17° 84° (E) 00:38:38
VELOX 1 30 Apr 00:33:32 00:37:48 46° 261° (W) 00:42:07 145.980
BEESAT 2 30 Apr 00:37:02 00:37:34 10° 355° (N) 00:38:06 435.950
CUSAT 1 30 Apr 00:41:24 00:44:03 12° 52° (NE) 00:46:52 437.405
ANTELSAT 30 Apr 00:41:29 00:45:39 42° 292° (WNW) 00:49:42 437.575/2403.000
GONETS M04 30 Apr 00:41:35 00:49:19 36° 83° (E) 00:57:04
RS-15 30 Apr 00:41:52 00:53:20 72° 317° (NW) 01:05:31 29.354- 29.394
BUGSAT 1 30 Apr 00:42:24 00:45:51 24° 93° (E) 00:49:15 437.445
DX 1 30 Apr 00:42:25 00:46:32 40° 262° (W) 00:50:43 434.975-435.025
TISAT 1 30 Apr 00:42:34 00:46:22 32° 66° (ENE) 00:50:12 437.305
Cosmos 2504 30 Apr 00:46:58 00:48:29 11° 315° (NW) 00:50:01 435.465 / 435.565
SWISSCUBE 30 Apr 00:47:00 00:48:58 12° 52° (NE) 00:50:55 437.505
UKube-1 30 Apr 00:55:22 00:59:21 36° 263° (W) 01:03:23 .
PCSat 30 Apr 01:02:10 01:07:27 48° 45° (NE) 01:12:41 145.827
AISAT 30 Apr 01:06:08 01:09:42 23° 267° (W) 01:13:17 437.250
Cosmos 2499 30 Apr 01:10:28 01:15:57 25° 81° (E) 01:21:27 435.465 / 435.565
ESTCUBE 1 30 Apr 01:11:50 01:14:47 17° 270° (W) 01:17:47 437.505/2401.250
QB50P2 30 Apr 01:16:47 01:21:04 74° 287° (WNW) 01:25:18 145.880/145.840
BEESAT 30 Apr 01:18:48 01:22:15 20° 58° (ENE) 01:25:42 436.000
POLYITAN 1 30 Apr 01:18:55 01:23:11 73° 285° (WNW) 01:27:24 437.675
DUCHIFAT 1 30 Apr 01:21:12 01:25:28 77° 285° (WNW) 01:29:40 145.980
POPSAT HIP 1 30 Apr 01:22:27 01:26:43 70° 288° (WNW) 01:30:56 437.405
QB50P1 30 Apr 01:26:03 01:30:17 63° 288° (WNW) 01:34:28 145.935-145.965
SPROUT 30 Apr 01:31:45 01:35:36 31° 265° (W) 01:39:29 437.525
O/OREOS (USA 219) 30 Apr 01:33:07 01:37:41 77° 63° (ENE) 01:42:11 437.305
UNISAT 6 30 Apr 01:36:53 01:39:27 15° 303° (WNW) 01:42:00 437.425
JAS-2 30 Apr 01:37:29 01:44:23 35° 92° (E) 01:51:24 435.910
AIST 2 30 Apr 01:38:52 01:40:56 13° 344° (NNW) 01:43:01 435.215
TIGRISAT 30 Apr 01:56:33 01:57:58 11° 307° (NW) 01:59:23 435.000
NANOSAT C BR1 30 Apr 02:03:12 02:06:55 30° 295° (WNW) 02:10:36 145.865
AIST 1 30 Apr 02:08:45 02:13:01 58° 284° (WNW) 02:17:19
ITUPSAT 1 30 Apr 02:10:06 02:14:42 50° 69° (ENE) 02:19:19 437.325
Gurwin Techsat 1B 30 Apr 02:12:41 02:15:24 14° 86° (E) 02:18:07 435.225
BEESAT 3 30 Apr 02:14:09 02:16:37 16° 24° (NNE) 02:19:04 437.485
BEESAT 2 30 Apr 02:15:06 02:17:09 13° 19° (NNE) 02:19:10 435.950
BUGSAT 1 30 Apr 02:17:24 02:21:24 41° 292° (WNW) 02:25:20 437.445
TISAT 1 30 Apr 02:18:16 02:22:02 30° 264° (W) 02:25:50 437.305
SWISSCUBE 30 Apr 02:21:12 02:25:56 70° 72° (ENE) 02:30:41 437.505
CUSAT 1 30 Apr 02:21:13 02:27:34 49° 71° (ENE) 02:35:04 437.405
DANDE 30 Apr 02:34:04 02:39:13 32° 68° (ENE) 02:45:33 436.750
GONETS M04 30 Apr 02:36:54 02:45:40 64° 285° (WNW) 02:54:30
KKS-1 30 Apr 02:40:23 02:43:20 18° 58° (ENE) 02:46:18 437.445
Oscar 19 30 Apr 02:43:14 02:48:22 53° 100° (E) 02:53:26 437.125/150
PCSat 30 Apr 02:45:48 02:50:46 37° 246° (WSW) 02:55:41 145.827
QB50P2 30 Apr 02:54:49 02:56:07 11° 306° (NW) 02:57:25 145.880/145.840
BEESAT 30 Apr 02:54:52 02:59:36 66° 257° (WSW) 03:04:22 436.000
POLYITAN 1 30 Apr 02:57:01 02:58:13 11° 306° (NW) 02:59:26 437.675
RS-15 30 Apr 02:57:09 03:08:10 42° 349° (NNW) 03:19:39 29.354- 29.394
DUCHIFAT 1 30 Apr 02:59:02 03:00:26 11° 306° (NW) 03:01:50 145.980
POPSAT HIP 1 30 Apr 03:00:49 03:01:43 11° 306° (NW) 03:02:37 437.405
Cosmos 2499 30 Apr 03:01:18 03:08:22 71° 283° (WNW) 03:15:30 435.465 / 435.565
STARS 30 Apr 03:06:02 03:08:55 17° 58° (ENE) 03:11:47 437.465
O/OREOS (USA 219) 30 Apr 03:13:57 03:16:28 15° 261° (W) 03:18:59 437.305
AIST 2 30 Apr 03:19:51 03:21:12 11° 8° (N) 03:22:33 435.215
JAS-2 30 Apr 03:22:15 03:29:45 66° 292° (WNW) 03:37:31 435.910
AO-7 30 Apr 03:22:25 03:26:14 14° 82° (E) 03:30:03 29.400- 29.500
ITUPSAT 1 30 Apr 03:49:00 03:52:49 24° 267° (W) 03:56:40 437.325
Gurwin Techsat 1B 30 Apr 03:50:49 03:56:11 85° 105° (ESE) 04:01:31 435.225
BEESAT 3 30 Apr 03:51:13 03:55:09 57° 45° (NE) 03:59:02 437.485
BEESAT 2 30 Apr 03:52:14 03:56:02 40° 41° (NE) 03:59:49 435.950
ITAMSAT 1 30 Apr 03:54:40 03:59:37 43° 98° (E) 04:04:31 435.822/435.867
MOZHAYETS 4 30 Apr 03:54:44 03:59:08 48° 69° (ENE) 04:03:32
SWISSCUBE 30 Apr 04:01:07 04:04:14 17° 270° (W) 04:07:23 437.505
CUSAT 1 30 Apr 04:03:27 04:09:42 44° 267° (W) 04:16:59 437.405
KKS-1 30 Apr 04:14:56 04:19:25 72° 256° (WSW) 04:23:56 437.445
DANDE 30 Apr 04:16:30 04:22:15 59° 262° (W) 04:29:35 436.750
Oscar 19 30 Apr 04:23:04 04:27:25 27° 300° (WNW) 04:31:45 437.125/150
GONETS M04 30 Apr 04:38:58 04:44:40 18° 312° (NW) 04:50:23
STARS 30 Apr 04:40:20 04:44:46 73° 256° (WSW) 04:49:15 437.465
AIST 2 30 Apr 04:57:45 05:01:08 23° 32° (NNE) 05:04:30 435.215
Cosmos 2499 30 Apr 04:58:46 05:03:02 16° 308° (NW) 05:07:20 435.465 / 435.565
YUBILEINY 30 Apr 05:01:20 05:07:55 23° 54° (NE) 05:14:29 435.215
JAS-2 30 Apr 05:08:31 05:13:32 20° 312° (NW) 05:18:44 435.910
RS-15 30 Apr 05:12:34 05:24:07 47° 22° (NNE) 05:35:56 29.354- 29.394
AO-7 30 Apr 05:12:35 05:20:50 61° 104° (ESE) 05:29:04 29.400- 29.500
HORYU 2 30 Apr 05:29:08 05:32:54 26° 94° (E) 05:36:39 437.375
BEESAT 3 30 Apr 05:29:35 05:32:32 20° 245° (WSW) 05:35:27 437.485
BEESAT 2 30 Apr 05:30:17 05:33:49 30° 241° (WSW) 05:37:20 435.950
CUBESAT XI-V 30 Apr 05:31:01 05:35:29 53° 70° (ENE) 05:40:00 437.345
Gurwin Techsat 1B 30 Apr 05:31:52 05:35:31 19° 305° (NW) 05:39:09 435.225
MOZHAYETS 4 30 Apr 05:32:53 05:36:33 23° 268° (W) 05:40:12
ITAMSAT 1 30 Apr 05:34:23 05:38:59 33° 297° (WNW) 05:43:34 435.822/435.867
STRAND 1 30 Apr 05:36:23 05:37:50 11° 49° (NE) 05:39:17 437.568
Cosmos 2491 30 Apr 05:53:39 05:58:25 16° 70° (ENE) 06:03:12 435.465 / 435.565
NOAA 15 30 Apr 05:55:11 05:56:44 11° 84° (E) 05:58:16 137.62
DANDE 30 Apr 06:02:20 06:04:23 12° 278° (W) 06:06:34 436.750
BRITE-PL 30 Apr 06:06:44 06:08:40 12° 82° (E) 06:10:35 437.365/2234.400
NOAA 18 30 Apr 06:26:56 06:30:46 19° 90° (E) 06:34:34 137.9125
AIST 2 30 Apr 06:35:55 06:40:04 75° 233° (SW) 06:44:11 435.215
Cosmos 2504 30 Apr 06:38:28 06:43:52 21° 57° (ENE) 06:49:27 435.465 / 435.565
CUTE-I 30 Apr 06:40:26 06:44:12 19° 89° (E) 06:47:57 437.470
YUBILEINY 30 Apr 06:57:32 07:06:18 81° 78° (ENE) 07:15:02 435.215
HORYU 2 30 Apr 07:05:27 07:09:37 40° 293° (WNW) 07:13:43 437.375
AO-7 30 Apr 07:05:46 07:13:22 42° 306° (NW) 07:20:59 29.400- 29.500
LilacSat-2 30 Apr 07:06:10 07:09:22 24° 94° (E) 07:12:31 437.200
CUBESAT XI-V 30 Apr 07:09:42 07:13:12 21° 269° (W) 07:16:44 437.345
STRAND 1 30 Apr 07:11:00 07:15:58 56° 69° (ENE) 07:20:58 437.568
Cubesat XI-IV 30 Apr 07:23:02 07:28:05 41° 98° (E) 07:33:05 437.490
RS-15 30 Apr 07:25:54 07:38:12 90° 233° (SW) 07:50:36 29.354- 29.394
NOAA 15 30 Apr 07:32:09 07:37:30 70° 104° (ESE) 07:42:48 137.62
GOMX 1 30 Apr 07:32:25 07:37:15 31° 92° (E) 07:41:58 467.674
BRITE-PL 30 Apr 07:42:30 07:48:10 65° 101° (E) 07:53:49 437.365/2234.400
DOVE 4 30 Apr 07:44:28 07:48:20 21° 88° (E) 07:52:05 437.250
Cosmos 2491 30 Apr 07:44:47 07:53:29 67° 93° (E) 08:02:14 435.465 / 435.565
NOAA 18 30 Apr 08:06:33 08:12:03 76° 289° (WNW) 08:17:29 137.9125
M-CUBED/EXP-1 PRIME 30 Apr 08:10:14 08:13:58 32° 101° (E) 08:17:26 437.505
PRISM 30 Apr 08:16:49 08:20:46 50° 70° (ENE) 08:24:45 437.425
AIST 2 30 Apr 08:17:03 08:17:48 10° 251° (WSW) 08:18:33 435.215
CUTE-I 30 Apr 08:19:29 08:24:49 73° 288° (WNW) 08:30:07 437.470
Cosmos 2504 30 Apr 08:30:57 08:38:25 84° 80° (E) 08:46:23 435.465 / 435.565
AUBIESAT-1 30 Apr 08:31:29 08:35:25 43° 104° (ESE) 08:39:02 437.475
CUTE 1.7 + AOD 2 30 Apr 08:36:20 08:39:07 17° 90° (E) 08:41:53 437.475
LilacSat-2 30 Apr 08:40:17 08:43:44 32° 292° (WNW) 08:47:09 437.200
CINEMA 3 30 Apr 08:49:53 08:53:51 25° 92° (E) 08:57:38 145.822/145.860
STRAND 1 30 Apr 08:51:26 08:55:30 24° 268° (W) 08:59:35 437.568
HO-68 30 Apr 08:52:38 08:59:01 33° 94° (E) 09:05:21 435.675
YUBILEINY 30 Apr 08:55:21 09:02:09 27° 282° (WNW) 09:08:58 435.215
ISS 30 Apr 08:55:33 08:57:28 15° 139° (SE) 08:59:22 145.825
SO-50 30 Apr 08:57:23 09:02:12 57° 124° (SE) 09:07:01 436.795
AO-7 30 Apr 08:59:53 09:04:01 15° 330° (NNW) 09:08:10 29.400- 29.500
Cubesat XI-IV 30 Apr 09:03:18 09:08:06 35° 297° (WNW) 09:12:52 437.490
SEEDS 30 Apr 09:08:32 09:12:04 26° 94° (E) 09:15:35 437.485
GOMX 1 30 Apr 09:10:13 09:15:31 49° 292° (WNW) 09:20:41 467.674
NOAA 15 30 Apr 09:12:44 09:16:48 23° 303° (WNW) 09:20:52 137.62
COMPASS 1 30 Apr 09:17:32 09:20:54 24° 93° (E) 09:24:17 437.405
DOVE 4 30 Apr 09:21:18 09:26:33 67° 288° (WNW) 09:31:32 437.250
BRITE-PL 30 Apr 09:21:37 09:26:13 26° 300° (WNW) 09:30:51 437.365/2234.400
UNISAT 6 30 Apr 09:26:56 09:30:06 19° 59° (ENE) 09:33:15 437.425
CANX-2 30 Apr 09:37:43 09:41:57 75° 102° (ESE) 09:46:10 2200.000
RS-15 30 Apr 09:39:11 09:49:20 33° 256° (WSW) 09:59:33 29.354- 29.394
Cosmos 2491 30 Apr 09:43:03 09:51:00 36° 297° (WNW) 09:59:00 435.465 / 435.565
M-CUBED/EXP-1 PRIME 30 Apr 09:44:49 09:48:30 30° 302° (WNW) 09:51:56 437.505
TIGRISAT 30 Apr 09:44:49 09:48:33 24° 62° (ENE) 09:52:15 435.000
Oscar 11 30 Apr 09:45:49 09:48:43 17° 90° (E) 09:51:36 145.826/435.025
NOAA 18 30 Apr 09:48:38 09:51:52 16° 309° (NW) 09:55:05 137.9125
AAUSAT CUBESAT 2 30 Apr 09:50:57 09:54:54 41° 98° (E) 09:58:50 437.432
FUNcube-1 30 Apr 09:53:16 09:56:02 17° 89° (E) 09:58:45 145.935
PRISM 30 Apr 09:53:32 09:56:23 18° 268° (W) 09:59:17 437.425
UWE-3 30 Apr 09:55:54 09:59:34 26° 93° (E) 10:03:09 435.000/436.395/437.385
DELFI C3 30 Apr 09:56:14 09:56:43 10° 86° (E) 09:57:13 145.870
CUBEBUG 2 30 Apr 09:56:52 10:01:00 37° 96° (E) 10:04:58 437.445
CUTE-I 30 Apr 10:01:08 10:04:00 15° 309° (NW) 10:06:52 437.470
AUBIESAT-1 30 Apr 10:06:24 10:09:40 23° 305° (NW) 10:12:45 437.475
ANTELSAT 30 Apr 10:07:50 10:12:09 39° 68° (ENE) 10:16:25 437.575/2403.000
CUTE 1.7 + AOD 2 30 Apr 10:11:12 10:15:21 58° 288° (WNW) 10:19:29 437.475
